Location: Buffign�court
(47.8126°N, 6.0176°E)
Time: 17:45:52
(UTC+00:00)

Cosmos 1975 Rocket - Pass Details

Date: 16 June 2021
Orbit: 603 x 633 km, 82.5° (Epoch: 02 August)

Event Time Altitude Azimuth Distance (km) Brightness Sun altitude
Exits shadow 21:18:20 - 200° (SSW) 2,404 5.7 -12.3°
Reaches altitude 10° 21:19:26 10° 202° (SSW) 1,962 5.3 -12.4°
Maximum altitude 21:23:43 58° 282° (WNW) 722 3.6 -12.8°
Drops below altitude 10° 21:28:04 10° 2° (N) 1,995 6.6 -13.2°
Sets 21:30:22 0° 7° (N) 2,912 7.4 -13.4°
